Temperature
11 11 10 10 10 9 10 10 10 10 10 12 13 13 14 15 15 15 15 14 14 14 14 13 13 12 11 11 10 10 9 9 8 8 7 7 6 6 6 5 5 4 4 3
11 11 10 11 10 10 10 10 10 10 10 12 13 13 13 14 14 14 15 15 15 14 14 13 13 12 11 11 10 9 9 8 8 7 7 6 6 6 5 5 4 4 3 3
9 10 11 10 10 10 10 9 10 11 12 12 12 11 12 14 14 15 15 15 15 14 14 13 13 12 11 11 10 9 8 8 7 7 6 6 5 5 5 4 4 3 3 2
8 9 9 11 11 11 10 10 9 10 11 11 11 13 14 14 15 15 15 15 14 14 13 13 12 11 11 10 9 8 8 7 7 6 6 5 5 5 4 3 3 3 2 2
7 8 9 9 10 10 10 10 10 10 10 11 11 11 12 15 15 15 14 14 14 13 13 12 12 11 10 9 8 8 7 7 6 6 5 5 5 4 3 3 3 2 2 2
6 8 9 10 11 11 11 11 11 10 10 10 9 9 11 14 14 14 14 13 13 13 12 12 11 10 9 8 8 7 7 6 6 5 5 4 4 3 3 2 2 2 1 1
7 8 8 9 10 11 11 11 12 12 11 10 8 11 13 13 13 13 13 12 12 12 11 11 10 9 8 8 7 7 6 6 5 5 4 4 3 3 2 2 1 1 1 1
6 7 8 9 9 10 11 13 13 13 13 12 12 12 12 12 12 12 12 11 11 11 10 9 9 8 8 7 7 6 5 5 5 4 4 3 2 2 2 1 1 1 0 0
8 9 10 10 11 13 13 13 14 14 14 13 13 12 12 12 12 11 11 10 10 10 9 8 8 7 7 6 6 5 5 4 4 3 3 2 2 2 1 1 0 -0 -1 -1
7 7 8 10 12 13 13 13 14 14 13 13 13 12 12 11 11 10 10 9 9 8 8 8 7 6 6 5 5 4 4 4 3 3 2 2 1 1 0 0 -0 -1 -1 -2
7 7 8 10 12 13 13 13 13 13 13 12 12 12 11 11 10 10 9 8 8 7 7 7 6 5 5 4 4 4 3 3 2 2 2 1 1 0 -0 -1 -1 -2 -2 -3
8 8 8 11 14 13 13 13 12 12 12 11 11 11 10 10 9 9 8 8 7 6 6 5 5 5 4 4 3 3 2 2 2 1 1 0 -0 -0 -1 -1 -2 -2 -3 -4
11 12 12 12 12 13 12 12 12 11 11 11 10 10 9 9 8 8 7 7 6 6 5 5 4 4 3 3 2 2 2 1 1 0 -0 -1 -1 -2 -2 -2 -3 -3 -4 -4
11 11 10 11 12 12 11 11 11 10 10 9 9 9 8 8 7 7 6 6 5 5 4 4 3 3 2 2 1 1 1 0 -0 -1 -1 -1 -2 -3 -3 -4 -4 -4 -4 -5
10 10 11 11 11 10 10 10 10 9 9 8 8 8 7 7 6 6 5 5 4 4 3 3 3 2 2 1 1 0 -0 -0 -1 -1 -2 -2 -3 -3 -4 -5 -5 -5 -5 -5
9 9 9 9 9 9 9 9 8 8 8 7 7 6 6 6 5 4 4 4 3 3 3 2 2 1 1 0 -0 -0 -1 -1 -2 -2 -3 -3 -4 -5 -5 -6 -6 -6 -7 -7
8 7 7 8 8 8 8 7 7 7 6 6 5 5 5 4 4 3 3 3 2 2 2 1 1 0 0 -0 -1 -1 -2 -2 -3 -3 -4 -4 -5 -6 -6 -7 -7 -7 -7 -8
8 8 8 8 8 7 6 6 6 5 5 5 4 4 3 3 3 3 2 2 1 1 1 0 -0 -0 -1 -1 -2 -2 -3 -3 -4 -4 -5 -6 -6 -6 -7 -7 -8 -8 -8 -8
6 7 6 6 6 6 5 5 4 4 4 3 3 3 2 2 2 1 1 1 1 0 -0 -1 -1 -2 -2 -2 -3 -3 -4 -4 -5 -6 -6 -7 -7 -7 -8 -8 -9 -9 -9 -9
5 5 5 4 4 4 4 3 3 3 2 2 2 2 1 1 1 0 0 -0 -0 -1 -1 -2 -2 -3 -3 -3 -4 -4 -5 -6 -6 -7 -7 -7 -8 -8 -8 -9 -9 -10 -10 -10
3 3 3 3 3 2 2 2 2 2 1 1 1 1 0 0 -0 -1 -1 -1 -1 -2 -2 -3 -3 -4 -4 -5 -5 -6 -6 -7 -7 -8 -8 -8 -9 -9 -9 -10 -10 -10 -11 -11
2 2 2 2 2 1 1 1 1 1 0 0 -0 -0 -1 -1 -1 -2 -2 -2 -3 -3 -4 -4 -4 -5 -5 -6 -7 -7 -7 -8 -8 -8 -9 -9 -10 -10 -10 -11 -11 -11 -11 -11
1 1 1 1 1 0 -0 -0 -0 -0 -1 -1 -1 -1 -2 -2 -2 -3 -3 -3 -4 -4 -5 -5 -5 -6 -7 -7 -7 -8 -8 -8 -9 -9 -10 -10 -11 -11 -11 -11 -11 -12 -12 -12
-0 -0 -0 -0 -0 -1 -1 -1 -1 -1 -1 -2 -2 -2 -3 -3 -3 -4 -4 -5 -5 -5 -5 -6 -6 -7 -7 -8 -8 -8 -9 -9 -10 -10 -11 -11 -11 -11 -12 -12 -12 -12 -12 -12
-1 -1 -1 -1 -1 -1 -2 -2 -2 -2 -2 -3 -3 -3 -4 -4 -5 -5 -5 -5 -6 -6 -6 -6 -7 -8 -8 -8 -9 -9 -10 -10 -11 -11 -11 -11 -12 -12 -12 -12 -12 -12 -12 -12
-2 -2 -2 -2 -2 -2 -3 -3 -3 -3 -3 -4 -4 -4 -4 -5 -5 -6 -6 -6 -6 -7 -7 -7 -8 -8 -9 -9 -10 -10 -10 -11 -11 -11 -11 -11 -12 -12 -12 -12 -12 -12 -12 -12
-2 -3 -3 -3 -3 -3 -4 -4 -4 -4 -4 -5 -5 -5 -6 -6 -6 -6 -7 -7 -7 -8 -8 -8 -9 -9 -9 -10 -10 -10 -11 -11 -11 -11 -12 -12 -12 -12 -12 -12 -12 -12 -12 -13
Wind_Speed
7 6 7 8 9 12 13 13 12 11 12 15 12 11 9 8 6 6 7 9 11 12 11 11 11 11 11 11 10 10 10 9 9 7 6 6 5 5 4 4 5 5 5 6
6 6 7 6 9 12 13 11 12 11 12 13 10 7 8 9 8 9 10 10 10 10 11 12 13 13 12 11 11 10 11 10 8 7 6 6 5 5 4 5 5 5 6 7
6 3 3 9 11 12 9 9 10 14 16 12 8 9 9 9 9 10 11 10 10 11 12 12 12 13 13 12 10 10 9 8 7 7 6 6 5 4 5 5 5 6 7 7
5 5 9 10 6 10 11 11 12 10 10 9 10 8 7 7 8 9 8 8 8 8 8 8 8 9 9 10 10 10 8 8 7 7 6 5 5 5 6 5 5 6 8 8
6 6 8 8 6 8 10 10 11 14 13 9 3 2 6 7 7 8 7 6 6 6 6 7 8 9 10 9 9 8 8 8 7 7 6 5 6 6 5 5 6 7 7 8
6 6 8 9 5 6 6 7 9 11 12 7 5 2 6 3 3 4 3 3 4 5 5 7 8 10 10 9 9 9 8 7 6 6 6 6 7 6 5 5 7 7 8 8
7 7 8 8 4 8 6 9 5 7 8 8 9 7 3 1 2 3 3 3 5 6 6 6 8 9 9 8 8 7 6 5 5 5 6 6 5 5 5 6 7 8 9 9
7 6 9 7 9 10 10 4 4 5 6 8 8 4 2 2 2 4 4 4 5 6 5 5 7 9 8 7 5 5 5 4 4 4 4 4 5 6 6 6 7 8 9 10
11 9 5 8 10 7 5 6 6 5 6 7 7 5 4 3 3 3 4 4 4 6 6 4 5 6 7 5 5 5 4 4 4 4 4 5 5 6 6 6 6 8 8 10
5 8 7 7 6 5 6 6 5 5 6 8 7 6 5 4 4 4 4 4 5 6 6 4 4 4 4 4 4 4 4 4 4 4 5 5 5 5 6 6 7 8 9 10
6 6 4 7 9 9 7 6 5 5 6 7 7 6 6 5 5 5 4 4 5 6 5 5 4 4 3 4 4 4 4 4 4 5 5 6 6 6 7 8 9 10 9 9
8 9 8 7 6 8 8 8 8 7 5 4 6 6 6 5 5 5 5 5 5 5 4 4 4 3 3 3 4 4 4 4 4 4 5 5 6 8 12 14 18 20 20 19
6 5 6 3 2 5 6 6 6 7 6 5 4 5 5 4 4 5 5 5 5 5 4 3 3 3 3 3 3 4 5 5 5 5 5 6 6 8 10 11 16 19 21 22
4 5 4 4 4 4 5 5 5 5 4 4 4 4 5 4 4 5 5 4 4 4 3 3 3 3 3 3 3 5 5 7 7 6 6 7 7 8 9 11 12 10 13 20
5 5 5 4 5 5 5 6 7 5 4 4 4 5 6 5 5 4 3 3 3 3 2 2 3 4 3 3 4 5 5 5 6 6 6 7 8 8 9 11 12 12 10 12
5 5 5 6 6 6 6 6 6 5 5 4 4 4 4 5 4 3 3 3 3 2 2 3 4 4 3 3 4 5 5 10 10 7 7 7 8 9 10 10 12 12 12 11
8 7 7 6 6 6 5 5 6 6 5 5 5 5 6 5 4 3 2 1 1 2 3 4 5 4 4 4 5 5 5 8 12 10 8 8 9 9 10 11 12 12 12 14
7 8 8 8 8 7 6 5 6 6 5 5 6 6 5 4 3 1 0 1 2 3 3 4 4 4 5 5 5 5 6 7 7 8 9 9 10 10 10 11 12 14 13 14
6 7 7 7 7 8 7 6 6 5 6 6 6 5 4 3 2 1 1 1 2 4 5 4 7 6 6 7 9 6 7 8 9 9 9 14 14 10 11 12 13 13 14 14
8 9 10 9 8 8 8 7 7 7 5 5 6 5 3 2 2 1 1 2 4 5 5 6 6 6 6 8 11 7 8 9 10 11 10 10 11 12 12 12 13 14 14 14
10 11 11 11 10 8 8 7 8 7 5 5 5 3 2 1 1 1 2 4 5 4 6 9 6 6 7 9 13 8 8 9 10 11 11 12 12 13 13 13 14 14 14 14
9 11 11 10 10 9 7 6 7 6 6 5 4 3 2 2 3 3 4 5 5 9 7 6 6 10 13 15 8 8 9 10 11 10 11 12 12 14 14 14 14 14 14 13
10 10 10 10 9 8 7 7 6 5 5 4 3 2 2 2 3 3 6 4 5 11 9 7 12 18 21 12 7 8 10 11 11 11 12 12 13 13 14 15 14 14 13 13
11 10 10 8 8 8 7 5 5 4 3 2 2 2 2 3 4 3 4 10 13 14 9 12 19 21 20 9 8 9 10 11 11 12 13 13 13 13 14 14 14 14 14 15
10 9 9 8 8 6 5 4 4 4 3 2 3 3 3 3 4 6 6 8 13 15 9 13 19 21 13 9 10 11 11 12 13 13 12 13 13 13 14 14 14 14 14 14
8 7 6 6 5 4 3 3 3 3 3 4 4 4 4 4 5 6 6 8 10 14 11 9 11 14 10 10 11 12 12 14 15 13 13 14 15 15 15 14 16 15 14 14
8 6 5 5 5 4 3 3 3 3 3 4 6 5 6 6 7 7 8 9 9 9 10 10 10 10 11 11 12 12 12 12 13 13 13 14 14 14 14 16 15 14 14 14
Wind_Direction
197 179 165 190 194 187 198 206 212 229 233 250 255 258 267 271 266 243 230 215 207 205 200 193 189 186 184 181 175 170 170 176 185 182 180 182 192 204 212 221 231 239 250 259
206 198 190 215 215 201 213 221 231 248 259 253 254 253 260 259 250 245 239 227 216 207 199 195 192 188 183 181 177 171 176 183 178 176 182 192 203 210 221 236 244 247 253 259
207 185 166 245 215 201 206 206 199 227 243 253 254 248 248 251 243 240 241 231 218 209 203 199 193 185 184 180 169 171 177 178 178 181 191 203 208 215 230 240 245 255 258 258
151 141 221 240 207 198 209 226 212 223 239 239 236 246 248 236 235 244 237 227 216 203 198 190 179 172 164 158 165 172 176 180 183 186 198 205 212 228 238 241 246 254 259 259
153 199 259 287 241 186 196 246 223 224 241 245 236 304 284 241 223 230 226 213 204 192 180 166 163 158 151 156 162 170 181 188 191 190 198 208 224 237 242 245 253 254 257 261
151 183 227 238 227 169 140 261 243 211 227 223 144 213 268 270 210 213 188 165 156 144 140 150 154 148 150 160 168 185 192 193 191 191 199 215 230 241 244 245 255 261 265 261
167 204 248 243 185 127 167 238 238 194 202 182 187 210 239 136 145 142 126 121 127 131 139 150 146 145 154 165 187 192 180 179 189 199 209 223 235 243 250 256 263 266 270 271
161 194 241 210 149 180 211 206 181 184 186 188 204 208 192 172 152 134 123 122 129 132 132 137 146 150 161 182 184 164 167 183 202 213 222 228 237 253 255 256 267 273 276 280
189 209 221 182 194 210 184 187 195 189 191 177 183 198 191 180 165 150 143 140 136 138 135 139 153 158 170 180 162 162 174 201 218 228 234 233 237 252 261 256 262 273 275 280
208 244 234 223 226 225 204 205 199 185 174 169 182 190 186 178 172 164 155 152 143 142 148 161 165 163 169 166 164 168 197 221 231 239 251 248 243 246 252 258 262 269 273 278
216 249 264 252 225 216 204 199 182 173 178 182 178 183 184 184 181 174 164 154 153 160 166 173 166 170 172 172 167 188 217 235 245 245 251 259 255 247 252 246 250 263 267 268
209 209 194 222 219 191 187 197 191 176 174 176 179 180 172 179 177 167 162 153 154 162 166 171 171 185 193 188 184 197 234 248 251 254 257 259 269 279 267 264 273 274 275 276
197 187 183 200 169 171 182 191 180 174 173 167 164 161 159 162 160 153 153 158 169 175 174 172 181 209 220 208 204 216 237 252 257 257 260 264 267 275 286 287 279 279 280 282
171 139 160 193 188 164 151 141 132 124 126 134 138 134 134 135 138 151 166 173 162 155 161 173 200 235 236 221 224 237 246 260 264 257 259 263 265 268 274 284 292 285 280 282
189 179 174 152 127 122 124 123 122 126 123 114 120 129 136 142 153 161 150 136 131 141 174 199 237 257 251 233 240 250 255 259 260 259 260 262 266 269 272 275 281 286 286 284
163 138 133 142 150 144 138 143 146 154 146 138 130 131 132 129 122 114 113 124 137 202 237 247 259 265 263 256 258 261 261 275 280 273 267 269 269 272 275 277 280 283 285 286
152 166 171 171 170 162 160 159 155 150 141 137 135 124 114 109 104 101 97 101 186 245 251 254 263 273 269 261 259 265 266 277 285 284 273 273 274 274 275 276 279 282 282 284
180 179 172 165 162 153 141 130 128 128 130 130 120 113 113 118 127 132 45 6 348 315 283 267 268 277 271 268 268 267 271 273 274 274 276 276 277 274 275 278 279 281 284 286
140 137 134 131 134 133 129 124 120 116 113 116 115 114 111 106 100 82 27 348 315 301 294 288 300 298 283 281 290 271 271 276 279 279 278 283 286 280 278 279 280 282 284 285
113 113 111 106 102 109 112 110 107 100 98 105 105 97 82 62 51 21 332 286 265 262 275 291 295 286 283 284 293 277 273 277 281 283 283 281 281 282 281 280 281 282 283 283
113 112 110 107 99 93 98 104 106 101 93 93 97 94 75 18 358 334 308 299 291 282 291 301 301 289 290 291 294 281 278 281 283 283 284 284 284 284 284 283 283 283 283 283
109 109 107 105 101 91 81 86 94 95 86 75 70 67 45 356 332 311 275 266 286 305 309 293 290 295 301 301 291 284 284 285 286 285 284 284 284 285 285 283 283 283 282 281
101 102 101 100 102 98 83 74 75 79 75 64 48 24 347 311 303 302 305 297 300 307 310 293 299 304 306 305 291 289 288 287 287 286 285 284 283 283 283 283 282 282 281 281
98 95 95 94 94 89 78 61 56 56 51 34 9 336 317 315 307 278 275 303 312 310 303 300 306 307 309 305 295 292 290 288 286 285 285 284 283 283 282 283 282 281 280 280
95 93 91 88 84 81 79 64 50 39 27 7 341 325 308 284 285 299 299 300 307 310 303 304 307 308 308 296 293 291 290 287 287 289 287 288 288 287 285 284 282 282 281 280
88 86 81 79 82 79 65 52 36 12 358 343 332 323 315 306 297 297 299 298 296 305 306 301 299 301 297 292 292 291 290 292 292 290 286 286 286 285 285 284 281 281 281 279
81 79 77 69 56 49 42 33 15 350 339 327 317 314 314 313 310 307 304 304 303 302 301 299 297 296 295 294 293 292 291 289 288 287 287 286 286 285 285 284 284 283 281 280
Height
1459 1459 1465 1466 1468 1473 1475 1474 1478 1474 1472 1461 1456 1455 1453 1452 1451 1451 1451 1452 1453 1455 1457 1461 1464 1468 1472 1476 1479 1482 1485 1487 1490 1492 1493 1494 1494 1494 1494 1493 1492 1490 1489 1487
1458 1458 1461 1462 1462 1465 1467 1467 1468 1467 1463 1451 1450 1450 1449 1448 1448 1447 1447 1447 1449 1450 1453 1455 1458 1462 1466 1470 1473 1477 1480 1482 1485 1487 1488 1489 1489 1489 1488 1487 1486 1484 1482 1480
1462 1458 1459 1463 1456 1458 1459 1458 1459 1459 1451 1445 1446 1445 1444 1443 1443 1443 1442 1443 1444 1446 1448 1451 1454 1457 1461 1464 1468 1472 1475 1478 1480 1482 1483 1483 1484 1483 1482 1481 1480 1478 1476 1474
1462 1462 1467 1448 1441 1442 1446 1446 1447 1444 1441 1440 1440 1439 1439 1439 1439 1438 1439 1440 1441 1442 1444 1447 1450 1454 1457 1460 1464 1467 1470 1472 1475 1476 1477 1478 1478 1477 1476 1475 1473 1471 1469 1466
1461 1460 1455 1446 1438 1439 1443 1442 1436 1437 1435 1435 1436 1437 1435 1434 1434 1435 1436 1437 1438 1440 1442 1444 1447 1450 1453 1456 1459 1462 1465 1467 1470 1471 1472 1472 1472 1471 1470 1468 1466 1464 1461 1459
1457 1456 1454 1439 1430 1429 1436 1439 1428 1428 1430 1431 1435 1439 1433 1431 1431 1432 1433 1435 1436 1438 1440 1442 1444 1446 1449 1452 1454 1457 1460 1463 1465 1466 1466 1466 1466 1465 1463 1461 1459 1456 1453 1451
1449 1448 1444 1430 1427 1430 1441 1434 1422 1422 1424 1427 1429 1430 1429 1429 1429 1430 1432 1433 1435 1436 1438 1440 1442 1444 1446 1449 1451 1454 1457 1458 1460 1461 1461 1460 1460 1458 1456 1454 1451 1448 1445 1442
1445 1446 1440 1422 1425 1427 1423 1419 1419 1420 1421 1423 1424 1426 1427 1427 1428 1429 1430 1432 1433 1435 1436 1438 1440 1442 1444 1446 1449 1451 1452 1454 1455 1455 1455 1454 1453 1451 1449 1446 1443 1439 1436 1432
1423 1421 1414 1413 1414 1414 1415 1416 1417 1418 1420 1421 1422 1423 1425 1426 1427 1428 1429 1431 1432 1434 1435 1437 1438 1440 1442 1444 1446 1447 1448 1449 1450 1449 1449 1448 1446 1444 1441 1439 1435 1431 1427 1422
1416 1413 1409 1409 1409 1411 1412 1414 1415 1416 1418 1419 1420 1421 1422 1424 1425 1426 1428 1429 1430 1432 1433 1435 1437 1438 1440 1441 1442 1443 1444 1444 1444 1443 1442 1441 1439 1437 1434 1431 1427 1423 1419 1414
1410 1406 1405 1404 1404 1406 1408 1410 1412 1414 1415 1416 1417 1419 1420 1421 1423 1424 1426 1427 1429 1430 1432 1433 1434 1436 1437 1438 1438 1438 1438 1438 1438 1437 1435 1433 1431 1429 1425 1422 1420 1415 1410 1406
1401 1398 1399 1399 1400 1402 1404 1406 1408 1410 1412 1413 1415 1416 1418 1419 1421 1422 1423 1425 1426 1428 1429 1431 1432 1433 1433 1434 1434 1433 1432 1432 1431 1429 1427 1425 1422 1419 1416 1414 1410 1406 1402 1399
1390 1391 1394 1395 1397 1399 1401 1403 1405 1407 1409 1410 1412 1414 1415 1417 1418 1419 1421 1422 1424 1425 1427 1428 1428 1429 1429 1429 1429 1428 1427 1425 1424 1422 1419 1417 1413 1409 1404 1401 1400 1396 1393 1389
1387 1389 1391 1393 1394 1396 1398 1400 1402 1404 1406 1408 1410 1411 1413 1414 1415 1417 1418 1419 1421 1422 1423 1424 1424 1425 1425 1424 1423 1422 1420 1419 1416 1414 1411 1408 1405 1401 1397 1391 1386 1382 1381 1378
1384 1386 1388 1390 1392 1393 1395 1397 1399 1401 1403 1405 1407 1408 1410 1411 1413 1414 1416 1417 1418 1419 1420 1420 1420 1420 1420 1418 1417 1415 1413 1411 1408 1405 1402 1399 1396 1392 1388 1383 1378 1372 1368 1366
1380 1383 1385 1387 1389 1391 1393 1395 1397 1399 1401 1403 1404 1406 1408 1409 1411 1412 1413 1414 1415 1415 1416 1416 1415 1415 1414 1412 1410 1408 1406 1403 1400 1397 1393 1390 1386 1382 1378 1374 1369 1364 1360 1356
1376 1379 1381 1384 1386 1388 1390 1393 1395 1397 1399 1401 1402 1404 1405 1407 1408 1409 1410 1411 1412 1412 1412 1411 1410 1409 1407 1405 1403 1400 1397 1395 1392 1388 1384 1381 1377 1373 1369 1364 1360 1355 1351 1347
1372 1375 1377 1380 1382 1385 1388 1390 1393 1395 1397 1399 1400 1402 1403 1405 1406 1407 1407 1408 1408 1407 1407 1406 1404 1402 1401 1398 1396 1393 1389 1386 1383 1379 1375 1371 1367 1363 1360 1355 1351 1346 1340 1337
1369 1372 1375 1378 1381 1384 1386 1389 1391 1394 1396 1397 1399 1400 1402 1403 1403 1404 1404 1404 1403 1402 1401 1400 1398 1396 1394 1391 1388 1384 1381 1377 1373 1370 1366 1362 1358 1354 1350 1345 1340 1336 1331 1327
1366 1370 1373 1376 1380 1383 1385 1388 1390 1392 1394 1396 1398 1399 1400 1400 1401 1400 1400 1400 1399 1397 1395 1393 1391 1389 1386 1383 1380 1376 1372 1368 1364 1360 1356 1352 1348 1343 1339 1335 1330 1326 1322 1317
1366 1369 1372 1376 1379 1382 1385 1388 1390 1392 1394 1395 1396 1397 1397 1397 1397 1397 1395 1394 1394 1392 1389 1387 1384 1381 1378 1375 1371 1368 1364 1360 1356 1351 1347 1342 1338 1333 1328 1324 1320 1316 1311 1307
1366 1370 1373 1376 1379 1383 1386 1388 1390 1392 1393 1394 1394 1395 1395 1394 1394 1393 1391 1390 1387 1385 1382 1380 1377 1374 1370 1367 1363 1359 1355 1351 1346 1341 1337 1332 1327 1323 1318 1314 1309 1305 1301 1297
1369 1372 1375 1378 1381 1383 1386 1388 1390 1391 1392 1392 1393 1392 1392 1391 1389 1388 1385 1384 1381 1378 1376 1372 1369 1366 1362 1358 1354 1350 1345 1341 1336 1331 1326 1322 1317 1312 1307 1303 1299 1294 1290 1286
1371 1374 1377 1380 1382 1385 1387 1388 1390 1390 1391 1391 1391 1390 1389 1387 1385 1383 1381 1378 1375 1372 1368 1365 1361 1358 1354 1349 1345 1340 1335 1330 1326 1321 1316 1311 1307 1302 1297 1293 1288 1284 1280 1275
1375 1377 1380 1382 1384 1386 1387 1388 1389 1389 1389 1389 1388 1387 1385 1383 1380 1377 1375 1372 1368 1365 1361 1357 1353 1349 1345 1340 1335 1330 1325 1321 1316 1311 1306 1302 1297 1292 1287 1282 1278 1273 1269 1264
1378 1380 1382 1384 1385 1387 1387 1387 1387 1387 1386 1385 1384 1383 1381 1378 1375 1372 1369 1365 1362 1358 1353 1349 1345 1340 1336 1331 1326 1321 1316 1311 1306 1301 1296 1291 1286 1281 1276 1271 1267 1262 1258 1253
1381 1383 1384 1385 1386 1387 1387 1386 1386 1385 1383 1382 1380 1378 1375 1373 1369 1366 1362 1358 1354 1350 1346 1341 1337 1332 1327 1322 1317 1312 1307 1302 1297 1292 1286 1281 1276 1271 1265 1261 1256 1251 1247 1242